Total_Precipitation_Accumulation
0.00 0.00 0.00 0.00 0.00 0.00 0.00 0.00 0.00 0.00 0.00 0.06 0.09 0.12 0.08 0.14 0.40 0.46 0.57 1.08 1.35 0.42 0.47 0.38 0.08 0.02 0.00 0.00 0.00 0.00 0.00 0.00 0.00 0.00 0.00 0.00 0.00 0.00 0.00 0.00 0.00 0.00 0.01 0.00 0.00 0.00 0.00 0.00 0.00
0.00 0.00 0.00 0.00 0.00 0.00 0.00 0.00 0.02 0.03 0.03 0.05 0.06 0.05 0.08 0.57 0.82 1.26 0.98 1.89 2.27 1.25 0.82 0.83 0.57 0.09 0.01 0.00 0.00 0.00 0.01 0.00 0.00 0.00 0.00 0.00 0.00 0.00 0.00 0.00 0.00 0.00 0.01 0.00 0.00 0.00 0.00 0.00 0.00
0.00 0.00 0.00 0.00 0.00 0.00 0.00 0.00 0.01 0.01 0.05 0.10 0.05 0.07 0.07 0.31 0.82 0.47 0.52 0.95 1.27 0.80 0.88 0.94 1.07 0.78 0.15 0.03 0.01 0.01 0.00 0.00 0.00 0.00 0.00 0.00 0.00 0.00 0.00 0.00 0.00 0.00 0.01 0.00 0.00 0.00 0.00 0.00 0.00
0.00 0.00 0.00 0.00 0.00 0.00 0.00 0.00 0.00 0.00 0.02 0.05 0.11 0.15 0.10 0.14 0.25 0.30 0.22 0.25 0.77 0.55 0.65 1.16 1.23 0.80 0.29 0.10 0.04 0.01 0.00 0.00 0.00 0.00 0.00 0.00 0.00 0.00 0.00 0.00 0.00 0.00 0.00 0.00 0.00 0.00 0.00 0.00 0.00
0.00 0.00 0.00 0.00 0.00 0.00 0.01 0.01 0.02 0.04 0.38 0.40 0.14 0.24 0.35 0.40 0.21 0.16 0.35 0.37 0.93 0.61 0.87 1.35 1.47 1.28 0.40 0.19 0.06 0.01 0.00 0.00 0.00 0.00 0.00 0.00 0.00 0.00 0.00 0.00 0.00 0.00 0.00 0.00 0.00 0.00 0.00 0.00 0.00
0.00 0.00 0.00 0.00 0.00 0.00 0.02 0.04 0.03 0.08 0.66 0.50 0.39 0.49 0.50 0.70 0.52 0.21 0.45 1.15 2.15 1.92 1.83 2.22 2.03 2.09 1.63 0.71 0.12 0.00 0.00 0.00 0.00 0.00 0.00 0.00 0.00 0.00 0.00 0.00 0.00 0.00 0.00 0.00 0.00 0.00 0.00 0.00 0.00
0.00 0.00 0.00 0.00 0.00 0.00 0.01 0.01 0.03 0.05 0.56 1.17 0.46 0.50 0.19 0.31 0.39 0.49 0.74 1.47 2.98 4.73 4.56 3.27 3.64 2.29 1.83 1.03 0.13 0.02 0.00 0.00 0.00 0.00 0.00 0.00 0.00 0.00 0.00 0.00 0.00 0.00 0.00 0.00 0.00 0.00 0.00 0.00 0.00
0.00 0.00 0.00 0.00 0.00 0.00 0.00 0.00 0.00 0.01 0.08 0.21 0.24 0.46 0.64 0.33 0.38 0.63 0.78 1.25 2.80 5.42 8.58 5.94 5.61 3.80 2.30 0.97 0.36 0.05 0.00 0.00 0.00 0.00 0.00 0.00 0.00 0.00 0.00 0.00 0.00 0.00 0.00 0.00 0.00 0.00 0.00 0.00 0.00
0.00 0.00 0.00 0.00 0.00 0.00 0.00 0.00 0.00 0.00 0.01 0.09 0.18 0.20 0.37 0.42 0.25 0.29 0.56 0.88 1.37 2.38 4.20 5.13 6.75 5.50 2.60 0.97 0.43 0.10 0.03 0.00 0.00 0.00 0.00 0.00 0.00 0.00 0.00 0.00 0.00 0.00 0.00 0.00 0.00 0.00 0.00 0.00 0.00
0.00 0.00 0.00 0.00 0.00 0.00 0.00 0.00 0.00 0.00 0.01 0.11 0.34 0.29 0.56 0.47 0.24 0.27 0.30 0.44 0.90 1.09 1.76 2.94 4.50 6.00 3.27 1.33 0.41 0.09 0.00 0.00 0.00 0.00 0.00 0.00 0.00 0.00 0.01 0.00 0.00 0.00 0.00 0.00 0.00 0.00 0.00 0.00 0.00
0.00 0.00 0.00 0.00 0.00 0.00 0.00 0.01 0.00 0.00 0.03 0.28 0.11 0.17 0.37 0.49 0.40 0.40 0.42 0.44 0.90 1.13 1.06 1.22 1.40 2.50 2.46 1.79 0.56 0.19 0.04 0.01 0.00 0.00 0.00 0.00 0.00 0.00 0.00 0.00 0.00 0.00 0.00 0.00 0.00 0.00 0.00 0.00 0.00
0.00 0.00 0.00 0.00 0.00 0.00 0.00 0.02 0.00 0.01 0.03 0.01 0.08 0.18 0.31 0.49 0.39 0.38 0.42 0.77 0.74 1.11 0.95 0.91 0.72 0.64 0.64 0.59 0.28 0.08 0.05 0.03 0.01 0.00 0.00 0.00 0.00 0.00 0.00 0.00 0.00 0.00 0.00 0.00 0.00 0.00 0.00 0.00 0.00
0.00 0.00 0.00 0.00 0.00 0.00 0.00 0.00 0.00 0.02 0.07 0.01 0.04 0.38 0.48 0.42 0.37 0.35 0.31 0.51 0.90 0.99 1.11 0.98 0.67 0.50 0.24 0.13 0.07 0.02 0.02 0.00 0.00 0.01 0.02 0.00 0.01 0.04 0.04 0.02 0.01 0.01 0.00 0.00 0.00 0.00 0.00 0.00 0.00
0.00 0.00 0.00 0.00 0.00 0.00 0.00 0.00 0.00 0.16 0.08 0.10 0.31 0.64 0.69 0.34 0.18 0.18 0.23 0.28 0.40 0.62 0.55 0.56 0.71 0.57 0.40 0.17 0.09 0.05 0.02 0.03 0.02 0.06 0.09 0.11 0.14 0.13 0.09 0.04 0.01 0.01 0.00 0.00 0.00 0.00 0.00 0.00 0.00
0.00 0.00 0.00 0.00 0.00 0.00 0.00 0.08 0.16 0.05 0.04 0.12 0.23 0.19 0.26 0.27 0.18 0.19 0.16 0.11 0.18 0.28 0.43 0.43 0.47 0.57 0.51 0.39 0.12 0.05 0.04 0.05 0.06 0.13 0.21 0.24 0.22 0.16 0.08 0.04 0.01 0.00 0.00 0.00 0.00 0.00 0.00 0.00 0.00
0.00 0.00 0.01 0.09 0.00 0.00 0.00 0.12 0.26 0.03 0.04 0.02 0.01 0.05 0.18 0.28 0.21 0.28 0.11 0.06 0.04 0.11 0.26 0.23 0.31 0.44 0.38 0.22 0.13 0.07 0.04 0.10 0.18 0.17 0.24 0.26 0.20 0.08 0.08 0.05 0.01 0.00 0.00 0.00 0.00 0.00 0.00 0.00 0.00
0.00 0.00 0.00 0.00 0.00 0.00 0.00 0.01 0.07 0.05 0.01 0.02 0.00 0.00 0.05 0.35 0.52 0.24 0.12 0.06 0.04 0.02 0.06 0.17 0.21 0.31 0.24 0.13 0.07 0.05 0.06 0.19 0.26 0.28 0.29 0.18 0.20 0.08 0.07 0.04 0.02 0.01 0.00 0.00 0.00 0.00 0.00 0.00 0.00
0.00 0.00 0.00 0.00 0.00 0.00 0.00 0.00 0.03 0.03 0.00 0.00 0.00 0.00 0.01 0.02 0.07 0.03 0.02 0.01 0.04 0.02 0.01 0.04 0.12 0.19 0.16 0.10 0.04 0.04 0.10 0.19 0.24 0.23 0.31 0.25 0.18 0.24 0.21 0.11 0.03 0.02 0.00 0.00 0.00 0.00 0.00 0.00 0.00
0.00 0.00 0.00 0.00 0.00 0.00 0.00 0.00 0.02 0.03 0.02 0.00 0.00 0.00 0.00 0.00 0.00 0.00 0.00 0.01 0.01 0.00 0.00 0.00 0.07 0.17 0.09 0.06 0.00 0.01 0.06 0.14 0.23 0.21 0.22 0.15 0.17 0.10 0.15 0.07 0.04 0.00 0.00 0.00 0.00 0.00 0.00 0.00 0.00
0.00 0.00 0.00 0.00 0.00 0.00 0.00 0.00 0.01 0.02 0.02 0.00 0.00 0.00 0.00 0.00 0.00 0.00 0.00 0.00 0.00 0.00 0.00 0.01 0.05 0.13 0.09 0.04 0.00 0.00 0.03 0.09 0.16 0.23 0.12 0.11 0.19 0.18 0.07 0.02 0.07 0.00 0.00 0.00 0.00 0.00 0.00 0.00 0.00
0.00 0.00 0.00 0.00 0.00 0.00 0.00 0.00 0.00 0.01 0.03 0.02 0.02 0.00 0.00 0.00 0.00 0.00 0.00 0.00 0.00 0.00 0.00 0.00 0.01 0.11 0.10 0.05 0.06 0.09 0.15 0.14 0.13 0.28 0.20 0.09 0.18 0.28 0.22 0.02 0.02 0.00 0.00 0.00 0.00 0.00 0.00 0.00 0.00
0.00 0.00 0.00 0.00 0.00 0.01 0.00 0.00 0.00 0.00 0.01 0.00 0.00 0.01 0.00 0.00 0.00 0.00 0.00 0.00 0.00 0.00 0.00 0.00 0.03 0.09 0.15 0.19 0.23 0.18 0.16 0.14 0.09 0.09 0.06 0.07 0.08 0.09 0.07 0.01 0.01 0.00 0.00 0.00 0.00 0.00 0.00 0.00 0.00
0.00 0.00 0.00 0.00 0.00 0.00 0.00 0.00 0.00 0.00 0.00 0.00 0.00 0.01 0.00 0.01 0.00 0.00 0.01 0.02 0.01 0.03 0.02 0.01 0.09 0.13 0.11 0.17 0.31 0.19 0.17 0.18 0.18 0.09 0.09 0.08 0.10 0.08 0.08 0.02 0.03 0.02 0.00 0.00 0.00 0.00 0.00 0.00 0.00
0.00 0.00 0.00 0.00 0.00 0.00 0.00 0.00 0.00 0.00 0.00 0.00 0.00 0.00 0.00 0.01 0.00 0.00 0.02 0.01 0.02 0.09 0.12 0.12 0.12 0.14 0.14 0.21 0.26 0.26 0.18 0.14 0.10 0.08 0.09 0.07 0.05 0.06 0.02 0.01 0.00 0.01 0.01 0.02 0.01 0.00 0.00 0.00 0.00
0.00 0.00 0.01 0.05 0.01 0.00 0.00 0.01 0.00 0.00 0.00 0.00 0.00 0.00 0.00 0.00 0.01 0.01 0.00 0.01 0.05 0.18 0.21 0.16 0.13 0.11 0.15 0.19 0.26 0.20 0.14 0.09 0.08 0.04 0.04 0.04 0.03 0.03 0.02 0.01 0.01 0.01 0.02 0.03 0.03 0.01 0.00 0.00 0.00
0.00 0.00 0.02 0.06 0.05 0.05 0.06 0.01 0.00 0.00 0.00 0.00 0.00 0.00 0.00 0.00 0.00 0.01 0.02 0.04 0.09 0.30 0.22 0.10 0.04 0.03 0.05 0.08 0.15 0.13 0.13 0.10 0.08 0.07 0.12 0.06 0.03 0.03 0.03 0.04 0.03 0.05 0.06 0.04 0.02 0.01 0.03 0.08 0.14
0.00 0.00 0.00 0.00 0.02 0.02 0.01 0.00 0.00 0.00 0.00 0.00 0.00 0.00 0.00 0.00 0.00 0.00 0.02 0.04 0.09 0.20 0.14 0.04 0.01 0.00 0.01 0.02 0.06 0.11 0.14 0.07 0.13 0.31 0.17 0.17 0.07 0.05 0.04 0.11 0.12 0.09 0.06 0.03 0.04 0.13 0.21 0.22 0.19
0.00 0.00 0.00 0.00 0.01 0.02 0.00 0.01 0.01 0.00 0.00 0.00 0.00 0.00 0.00 0.00 0.00 0.00 0.01 0.02 0.05 0.14 0.10 0.11 0.08 0.02 0.00 0.01 0.04 0.04 0.13 0.15 0.17 0.29 0.13 0.16 0.18 0.22 0.31 0.25 0.17 0.14 0.14 0.21 0.36 0.43 0.38 0.27 0.19
0.00 0.00 0.00 0.00 0.00 0.00 0.00 0.00 0.00 0.00 0.00 0.00 0.00 0.00 0.00 0.00 0.00 0.00 0.00 0.00 0.04 0.11 0.13 0.11 0.20 0.14 0.05 0.02 0.02 0.04 0.18 0.18 0.27 0.28 0.32 0.28 0.43 0.47 0.43 0.45 0.43 0.54 0.60 0.49 0.34 0.23 0.16 0.11 0.08
0.00 0.00 0.00 0.00 0.00 0.00 0.00 0.00 0.00 0.00 0.00 0.00 0.00 0.00 0.00 0.00 0.00 0.00 0.00 0.00 0.01 0.10 0.14 0.07 0.16 0.15 0.10 0.09 0.11 0.13 0.30 0.34 0.40 0.54 0.51 0.57 0.63 0.57 0.61 0.64 0.43 0.25 0.16 0.11 0.09 0.08 0.07 0.04 0.03